TimeEDT,TemperatureF,Dew PointF,Humidity,Sea Level PressureIn,VisibilityMPH,Wind Direction,Wind SpeedMPH,Gust SpeedMPH,PrecipitationIn,Events,Conditions,WindDirDegrees,DateUTC
12:15 AM,59.2,54.7,85,29.95,10.0,West,4.6,-,N/A,,Clear,270,2013-08-02 04:15:00
12:34 AM,58.1,54.3,87,29.94,10.0,WSW,4.6,-,N/A,,Clear,250,2013-08-02 04:34:00
12:55 AM,57.6,54.1,88,29.94,10.0,WSW,5.8,-,N/A,,Clear,240,2013-08-02 04:55:00
1:15 AM,57.7,54.5,89,29.93,10.0,West,5.8,-,N/A,,Clear,260,2013-08-02 05:15:00
1:34 AM,57.2,54.0,89,29.93,10.0,WSW,4.6,-,N/A,,Clear,250,2013-08-02 05:34:00
1:55 AM,56.3,54.0,92,29.93,10.0,WSW,5.8,-,N/A,,Clear,250,2013-08-02 05:55:00
2:15 AM,57.2,54.7,91,29.93,10.0,West,5.8,-,N/A,,Clear,260,2013-08-02 06:15:00
2:34 AM,57.0,54.5,91,29.92,10.0,West,4.6,-,N/A,,Clear,260,2013-08-02 06:34:00
2:55 AM,56.8,54.7,92,29.91,10.0,West,4.6,-,N/A,,Clear,260,2013-08-02 06:55:00
3:15 AM,55.9,54.0,93,29.91,10.0,WSW,4.6,-,N/A,,Clear,240,2013-08-02 07:15:00
3:34 AM,55.6,54.0,94,29.91,10.0,WSW,5.8,-,N/A,,Clear,250,2013-08-02 07:34:00
3:55 AM,55.8,54.5,96,29.91,10.0,WSW,4.6,-,N/A,,Clear,240,2013-08-02 07:55:00
4:14 AM,55.0,53.6,95,29.91,10.0,WSW,4.6,-,N/A,,Clear,240,2013-08-02 08:14:00
4:34 AM,54.7,53.6,96,29.92,10.0,WSW,4.6,-,N/A,,Clear,240,2013-08-02 08:34:00
4:55 AM,55.2,54.0,96,29.92,10.0,WSW,4.6,-,N/A,,Clear,240,2013-08-02 08:55:00
5:14 AM,55.2,54.0,96,29.92,10.0,SW,3.5,-,N/A,,Clear,220,2013-08-02 09:14:00
5:35 AM,55.6,54.0,94,29.93,10.0,SW,3.5,-,N/A,,Clear,220,2013-08-02 09:35:00
5:55 AM,55.9,54.5,95,29.93,10.0,SW,3.5,-,N/A,,Clear,220,2013-08-02 09:55:00
6:14 AM,55.4,53.8,94,29.93,10.0,SW,4.6,-,N/A,,Clear,220,2013-08-02 10:14:00
6:35 AM,55.2,53.4,94,29.94,10.0,SW,3.5,-,N/A,,Clear,230,2013-08-02 10:35:00
6:55 AM,55.8,54.0,94,29.95,10.0,SW,3.5,-,N/A,,Clear,230,2013-08-02 10:55:00
7:14 AM,57.0,55.0,93,29.93,10.0,South,3.5,-,N/A,,Clear,190,2013-08-02 11:14:00
7:35 AM,57.4,54.7,91,29.93,10.0,SSW,3.5,-,N/A,,Clear,200,2013-08-02 11:35:00
7:55 AM,60.1,55.9,86,29.93,10.0,SW,4.6,-,N/A,,Clear,220,2013-08-02 11:55:00
8:14 AM,61.2,56.3,84,29.93,10.0,SW,3.5,-,N/A,,Scattered Clouds,230,2013-08-02 12:14:00
8:35 AM,61.9,56.8,84,29.93,10.0,Calm,Calm,-,N/A,,Mostly Cloudy,0,2013-08-02 12:35:00
8:55 AM,62.8,57.0,81,29.93,10.0,SSW,3.5,-,N/A,,Mostly Cloudy,200,2013-08-02 12:55:00
9:14 AM,63.9,58.1,81,29.92,10.0,SSW,4.6,-,N/A,,Mostly Cloudy,200,2013-08-02 13:14:00
9:35 AM,66.6,58.3,75,29.92,10.0,SW,8.1,-,N/A,,Scattered Clouds,220,2013-08-02 13:35:00
9:55 AM,68.7,59.0,71,29.92,10.0,SW,9.2,-,N/A,,Scattered Clouds,230,2013-08-02 13:55:00
10:14 AM,66.6,57.0,71,29.93,10.0,SW,11.5,16.1,N/A,,Overcast,230,2013-08-02 14:14:00
10:35 AM,66.7,58.6,75,29.93,10.0,SW,12.7,-,N/A,,Mostly Cloudy,230,2013-08-02 14:35:00
10:55 AM,67.8,58.1,71,29.92,10.0,SW,12.7,19.6,N/A,,Mostly Cloudy,230,2013-08-02 14:55:00
11:14 AM,68.0,59.0,73,29.93,10.0,SW,10.4,19.6,N/A,,Mostly Cloudy,230,2013-08-02 15:14:00
11:35 AM,68.7,59.4,72,29.92,10.0,SW,8.1,-,N/A,,Scattered Clouds,220,2013-08-02 15:35:00
11:55 AM,71.1,59.9,68,29.91,10.0,SW,10.4,18.4,N/A,,Clear,220,2013-08-02 15:55:00
12:14 PM,72.7,59.7,64,29.91,10.0,SSW,17.3,21.9,N/A,,Clear,210,2013-08-02 16:14:00
12:35 PM,72.5,58.5,61,29.92,10.0,SSW,13.8,-,N/A,,Clear,210,2013-08-02 16:35:00
12:54 PM,73.0,59.4,62,29.91,10.0,SW,11.5,-,N/A,,Mostly Cloudy,220,2013-08-02 16:54:00
1:15 PM,70.5,59.0,67,29.91,10.0,SW,9.2,-,N/A,,Overcast,230,2013-08-02 17:15:00
1:35 PM,70.5,60.3,70,29.91,10.0,SSW,9.2,-,N/A,,Overcast,210,2013-08-02 17:35:00
1:54 PM,70.9,61.2,71,29.90,10.0,SSW,11.5,-,N/A,,Overcast,210,2013-08-02 17:54:00
2:15 PM,71.2,61.2,70,29.89,10.0,SW,11.5,17.3,N/A,,Overcast,220,2013-08-02 18:15:00
2:35 PM,71.6,61.3,70,29.89,10.0,SW,15.0,24.2,N/A,,Overcast,220,2013-08-02 18:35:00
2:54 PM,70.3,61.2,73,29.89,10.0,SSW,11.5,17.3,N/A,,Overcast,210,2013-08-02 18:54:00
3:15 PM,69.4,61.3,75,29.89,10.0,SW,12.7,19.6,N/A,,Overcast,230,2013-08-02 19:15:00
3:35 PM,69.4,61.7,76,29.89,10.0,SW,11.5,17.3,N/A,,Overcast,230,2013-08-02 19:35:00
3:54 PM,69.3,62.1,78,29.88,10.0,SW,9.2,-,N/A,,Overcast,230,2013-08-02 19:54:00
4:15 PM,68.9,62.4,80,29.88,10.0,WSW,12.7,-,N/A,,Overcast,240,2013-08-02 20:15:00
4:35 PM,68.9,62.6,80,29.88,10.0,SW,10.4,-,N/A,,Overcast,230,2013-08-02 20:35:00
4:54 PM,69.3,62.8,80,29.87,10.0,SW,12.7,-,N/A,,Overcast,230,2013-08-02 20:54:00
5:15 PM,69.1,63.3,82,29.87,10.0,SW,8.1,-,N/A,,Overcast,230,2013-08-02 21:15:00
5:35 PM,69.3,63.5,82,29.86,10.0,SW,9.2,-,N/A,,Overcast,230,2013-08-02 21:35:00
5:54 PM,68.9,63.5,83,29.86,10.0,WSW,8.1,-,N/A,,Overcast,250,2013-08-02 21:54:00
6:15 PM,69.3,63.7,82,29.86,10.0,WSW,6.9,-,N/A,,Overcast,250,2013-08-02 22:15:00
6:35 PM,69.6,64.0,82,29.87,10.0,WSW,8.1,-,N/A,,Overcast,240,2013-08-02 22:35:00
6:54 PM,69.8,64.2,82,29.86,10.0,SW,6.9,-,N/A,,Scattered Clouds,230,2013-08-02 22:54:00
7:15 PM,69.8,64.6,83,29.87,10.0,WSW,6.9,-,N/A,,Clear,240,2013-08-02 23:15:00
7:35 PM,69.4,64.8,85,29.87,10.0,WSW,5.8,-,N/A,,Scattered Clouds,250,2013-08-02 23:35:00
7:54 PM,69.1,64.9,87,29.87,10.0,WSW,4.6,-,N/A,,Scattered Clouds,240,2013-08-02 23:54:00
8:15 PM,68.5,64.8,88,29.88,10.0,West,4.6,-,N/A,,Clear,260,2013-08-03 00:15:00
8:35 PM,68.0,64.6,89,29.88,10.0,WSW,5.8,-,N/A,,Clear,250,2013-08-03 00:35:00
8:54 PM,67.5,64.6,90,29.89,10.0,West,4.6,-,N/A,,Clear,260,2013-08-03 00:54:00
9:15 PM,66.4,64.2,93,29.89,10.0,WSW,3.5,-,N/A,,Clear,250,2013-08-03 01:15:00
9:34 PM,66.0,64.2,94,29.90,10.0,WSW,3.5,-,N/A,,Clear,240,2013-08-03 01:34:00
9:55 PM,66.2,64.4,94,29.91,7.0,SW,4.6,-,N/A,,Clear,220,2013-08-03 01:55:00
10:15 PM,65.7,64.4,96,29.91,7.0,WSW,4.6,-,N/A,,Clear,250,2013-08-03 02:15:00
10:34 PM,65.5,64.4,96,29.91,7.0,WSW,4.6,-,N/A,,Clear,240,2013-08-03 02:34:00
10:55 PM,65.7,64.6,96,29.92,7.0,West,5.8,-,N/A,,Clear,260,2013-08-03 02:55:00
11:15 PM,65.7,64.6,96,29.92,7.0,WSW,4.6,-,N/A,,Clear,250,2013-08-03 03:15:00
11:34 PM,64.9,64.0,97,29.92,5.0,West,3.5,-,N/A,,Clear,260,2013-08-03 03:34:00
11:55 PM,64.6,63.9,98,29.92,5.0,WSW,4.6,-,N/A,,Clear,250,2013-08-03 03:55:00